Wind_Speed
19 19 20 20 21 21 22 22 23 23 24 25 26 26 27 27 28 28 27 27 26 26 25 25 24 24 24 24 24 25 26 26 27 28 29 29 30 30 31 31 32 32 33 33 33 33 34 34 34 34 34 35 35 34 34 34 33 32 31 31 31 30 29 27 27 26 25 24 24
19 20 21 21 22 22 23 24 24 25 25 26 26 26 27 27 26 26 25 25 24 24 23 23 23 22 22 22 23 23 24 24 25 26 27 27 28 29 29 30 31 31 32 33 33 34 34 35 35 35 36 36 37 37 36 36 34 33 33 32 31 30 28 28 27 27 25 24 23
20 21 21 22 23 23 24 24 25 25 26 26 26 26 26 25 25 24 24 23 23 23 22 22 22 22 22 22 22 22 23 23 24 25 25 26 26 27 28 29 29 30 30 31 32 33 34 34 35 36 37 37 38 38 37 36 35 34 33 32 30 29 28 27 27 26 24 23 23
21 21 22 23 23 24 24 24 25 25 25 25 25 25 25 24 24 24 23 23 23 23 23 22 22 22 22 23 23 23 23 24 24 24 25 25 26 26 27 27 28 28 29 30 30 31 32 33 34 35 36 37 37 37 36 35 34 33 31 29 28 27 26 27 26 24 23 22 23
21 21 22 22 23 23 23 24 24 24 24 25 24 24 24 24 24 24 24 24 24 24 24 23 23 24 24 24 24 24 25 25 25 25 26 26 26 26 27 27 27 28 28 28 29 29 30 30 32 33 34 34 34 34 33 32 31 29 28 27 26 26 25 25 24 22 22 22 23
20 21 21 22 22 22 23 23 23 24 24 24 24 24 24 24 24 24 24 24 25 25 25 25 25 25 25 25 25 26 26 26 26 26 26 27 27 27 27 27 28 28 28 28 28 28 28 29 30 31 31 32 31 31 30 29 28 26 25 25 25 24 24 23 22 21 21 22 23
20 20 21 21 22 22 22 23 23 23 24 24 24 24 24 25 25 25 25 25 25 26 26 26 26 26 26 26 26 27 27 27 27 27 27 27 27 27 27 27 28 28 28 28 28 28 28 28 29 30 30 30 29 28 28 26 25 24 24 24 24 23 22 21 20 20 21 22 24
20 20 21 21 22 22 22 23 23 24 24 25 25 25 25 25 26 26 26 26 26 26 26 26 26 27 27 27 27 28 28 28 27 27 27 27 27 27 27 28 28 28 28 28 28 28 28 28 29 29 29 29 28 27 26 25 24 23 23 23 22 21 21 20 20 20 22 24 25
20 20 21 21 22 22 23 23 24 25 25 25 26 26 26 26 26 26 26 26 27 27 27 27 27 27 27 28 28 28 28 28 28 28 28 27 27 27 27 28 28 28 28 28 28 28 28 28 29 28 28 27 27 26 25 24 23 23 22 22 21 21 20 19 20 21 23 25 25
19 20 20 21 22 22 23 24 25 25 26 26 26 26 27 27 27 27 27 27 27 27 27 27 27 27 28 28 28 28 28 28 28 28 28 28 27 27 27 27 27 28 28 28 28 28 28 28 28 27 27 26 26 25 24 23 23 22 21 21 21 20 20 19 20 21 23 24 25
19 19 20 21 22 22 23 24 25 25 26 26 26 27 27 27 27 27 27 27 27 27 27 27 27 27 27 28 28 28 28 28 27 27 27 27 27 27 27 27 27 27 27 27 27 27 27 27 26 26 26 26 25 25 24 23 22 21 20 20 20 20 19 19 19 20 22 24 26
19 20 21 21 22 23 24 24 25 25 26 26 26 26 27 27 27 27 27 27 27 27 27 27 27 27 27 27 27 27 27 27 27 26 26 26 26 26 26 26 26 25 25 25 25 25 25 25 25 25 25 25 25 24 24 23 21 20 20 20 20 19 18 18 19 21 24 25 25
20 21 22 23 23 24 24 25 25 25 26 26 26 26 26 27 27 27 27 27 27 27 27 27 26 26 26 26 26 26 26 26 25 25 25 25 25 25 25 24 24 24 24 24 24 24 24 24 24 25 25 25 24 24 23 22 20 19 19 19 18 17 18 20 22 24 25 25 23
21 22 23 24 24 25 25 25 25 26 26 26 26 26 26 26 26 26 26 26 26 26 26 26 25 25 25 25 25 25 25 24 24 24 24 24 24 23 23 23 22 22 22 22 23 23 23 24 24 24 24 24 24 23 22 20 19 19 18 17 16 17 19 21 23 24 23 22 21
22 23 23 24 24 25 25 25 25 25 25 25 25 25 25 25 25 25 25 25 25 25 24 24 24 24 24 24 24 23 23 23 23 22 22 22 22 22 21 21 21 21 21 21 21 22 22 23 23 24 24 23 23 21 20 19 18 18 17 16 15 17 20 22 23 22 21 20 19
22 22 23 23 23 24 24 24 24 24 24 24 24 24 23 23 23 23 23 23 23 23 23 22 22 22 22 22 22 22 21 21 21 21 21 21 21 20 20 20 20 20 20 20 21 21 22 22 22 23 23 22 22 21 20 19 18 17 16 16 17 19 21 22 21 19 18 17 16
22 22 22 22 22 22 22 22 22 22 22 22 22 22 21 21 22 21 21 21 21 21 21 21 21 21 20 20 20 20 19 19 19 19 19 19 19 19 19 19 19 19 19 20 20 20 20 20 21 21 21 21 21 20 19 18 17 16 16 17 19 21 21 20 18 16 15 14 14
21 22 22 21 21 21 20 20 20 20 20 20 20 19 20 20 20 20 19 19 19 19 19 19 19 19 19 18 18 18 18 17 17 17 17 17 17 18 18 17 17 17 17 17 17 18 18 18 18 19 19 19 19 19 18 17 16 16 17 19 20 20 19 17 16 15 14 13 13
21 21 21 20 19 19 18 18 18 18 18 17 17 17 17 18 18 18 18 18 18 18 18 18 18 18 18 17 17 16 16 16 15 15 15 15 15 15 14 14 13 12 12 13 13 13 14 15 15 16 16 16 16 17 16 16 16 16 17 18 18 17 15 15 14 14 12 12 11
19 19 19 18 17 16 15 15 15 14 15 15 15 16 16 16 16 16 17 17 17 17 17 17 17 17 17 17 16 15 15 14 13 13 12 12 13 12 12 10 10 9 9 9 9 9 10 11 12 13 13 14 14 15 15 15 16 16 16 15 14 13 12 12 12 11 10 11 12
18 17 16 15 14 13 12 12 12 13 13 14 15 15 15 15 16 16 16 16 17 17 17 17 17 17 17 16 16 15 14 13 12 12 11 11 11 11 10 10 9 9 8 8 8 8 8 9 10 11 12 13 14 14 14 15 15 15 14 12 11 10 10 10 10 10 12 13 14
15 14 13 13 12 11 11 12 13 14 14 15 14 13 13 14 15 15 15 15 15 16 16 16 16 16 16 16 16 15 14 13 12 12 11 10 10 9 9 9 9 8 8 7 8 8 8 9 10 11 12 13 13 14 14 14 14 13 11 9 9 9 10 11 12 13 14 16 17
12 11 11 10 10 11 13 14 15 15 15 15 13 11 11 13 14 14 14 14 14 14 15 15 15 15 16 16 16 15 14 13 12 12 11 10 9 8 7 7 7 8 8 8 8 8 8 9 10 11 11 12 13 13 13 13 13 11 10 9 10 11 12 13 15 16 17 18 18
10 9 9 9 10 12 14 15 16 16 16 15 13 12 11 12 13 13 14 14 14 14 14 14 15 15 15 15 15 15 14 13 12 12 11 10 9 8 8 8 8 8 9 9 8 8 9 9 10 10 11 11 12 12 12 12 12 11 11 11 12 13 15 16 16 17 17 17 16
9 10 10 11 12 13 14 14 15 16 16 15 14 13 12 12 12 13 14 15 15 15 15 14 14 14 14 14 14 14 13 13 12 12 11 11 10 10 10 10 10 10 10 10 10 10 10 11 11 10 10 10 11 11 11 12 12 12 12 12 13 13 14 15 15 15 14 14 13
10 11 12 12 12 12 12 12 12 13 13 14 14 14 13 12 12 13 14 16 16 17 17 16 15 14 13 13 12 12 12 12 12 12 12 11 11 11 11 11 11 11 11 12 12 12 12 12 12 12 12 11 12 12 12 12 12 12 11 11 12 12 12 12 12 12 11 11 11
11 11 11 11 11 11 11 11 11 10 9 10 12 12 12 12 12 13 14 16 17 18 19 19 18 17 15 14 12 11 11 12 12 12 12 12 12 12 12 12 11 12 12 13 13 14 14 14 13 13 13 13 13 13 13 12 12 11 11 11 10 10 10 10 10 10 10 10 10
11 11 10 10 9 10 10 10 10 9 8 9 10 10 10 10 11 13 14 15 16 17 18 19 19 19 18 17 16 15 14 14 14 14 14 14 14 15 14 14 13 13 13 14 14 14 14 14 15 15 15 14 14 14 13 12 11 11 11 10 10 10 10 10 10 10 10 10 9
10 10 9 9 9 9 10 10 10 9 8 9 10 10 10 11 12 13 14 15 16 16 17 17 18 19 20 20 20 19 18 18 17 17 16 16 16 16 16 15 15 15 15 15 15 15 15 15 15 15 15 14 14 14 13 12 12 11 11 10 10 10 10 10 10 10 10 9 9
9 9 9 9 10 10 10 10 9 9 9 10 10 10 11 12 13 14 14 15 16 16 16 16 17 17 18 19 20 20 20 20 19 18 17 16 15 16 16 16 16 16 16 15 15 15 14 14 14 14 14 14 14 13 13 13 12 12 11 11 11 11 10 10 10 9 9 8 8
9 9 10 10 11 11 11 10 10 10 11 11 10 11 12 13 14 15 15 16 16 16 15 15 15 15 15 17 17 18 18 18 18 16 15 13 13 13 14 15 15 15 15 14 13 13 13 12 12 13 13 13 13 13 13 13 12 12 12 11 11 11 10 10 9 8 8 7 7
10 10 11 11 11 11 11 11 12 12 11 11 11 11 13 14 15 15 16 15 15 15 14 14 13 12 13 13 14 15 15 15 14 13 12 11 11 12 12 13 13 13 12 12 11 11 11 11 11 12 12 13 13 13 12 12 12 12 12 11 10 10 9 9 8 7 7 7 7
9 10 10 10 11 11 11 11 11 11 11 11 11 12 13 14 14 14 14 14 14 13 13 12 11 11 11 11 12 12 12 12 11 11 10 10 10 10 11 11 11 11 11 10 10 10 10 11 11 12 12 12 12 12 12 12 12 11 11 10 9 9 8 8 8 7 7 7 7
9 9 10 10 11 11 11 11 11 11 11 11 11 12 12 12 12 12 12 12 12 12 11 11 10 10 10 10 10 11 11 10 10 10 10 10 10 10 10 10 10 10 10 10 10 11 11 12 12 13 13 13 12 12 12 11 11 10 10 9 9 8 8 8 8 7 7 7 7
9 9 10 10 11 11 12 12 11 11 11 11 10 10 10 10 10 10 11 11 11 10 10 9 9 9 9 9 9 10 10 10 10 10 10 9 10 10 10 10 11 11 11 11 11 12 12 12 13 13 13 12 12 12 11 11 10 9 9 9 8 8 8 8 8 8 8 7 7
9 10 10 11 11 11 11 11 12 11 11 10 10 9 8 8 9 9 10 10 10 9 9 8 8 8 8 8 9 9 10 10 10 10 10 9 9 10 10 11 11 11 12 12 12 12 12 13 13 13 12 12 11 11 10 10 9 9 9 8 8 8 8 8 8 8 8 8 8
10 10 10 10 11 11 11 11 11 11 11 10 9 8 8 7 7 8 9 9 10 10 9 9 8 8 9 9 9 9 9 9 9 9 9 9 9 9 9 10 11 11 12 12 12 12 12 13 12 12 11 11 10 10 10 9 9 9 9 8 8 8 8 8 8 8 8 8 8
11 11 11 10 10 10 10 10 10 11 10 9 9 8 8 7 7 7 8 9 10 10 10 10 9 9 9 9 9 9 9 9 8 8 9 9 9 9 9 9 10 11 11 12 12 12 12 12 12 11 11 10 10 9 9 9 9 9 9 9 9 8 8 8 8 8 8 8 8
12 12 11 10 9 9 9 9 10 10 9 9 9 9 8 7 7 7 7 8 9 10 10 10 10 10 10 10 10 9 9 8 8 8 8 8 9 8 8 9 10 11 11 11 11 12 12 11 11 11 10 10 10 9 9 9 9 9 9 9 9 8 8 8 8 8 8 8 8
13 12 11 10 9 9 9 9 9 9 9 9 9 9 8 7 7 7 7 8 9 10 10 10 10 10 10 10 9 9 9 9 8 9 9 9 9 9 9 10 10 11 11 11 11 11 11 11 11 11 10 10 10 10 9 9 9 9 9 9 9 9 8 8 8 8 8 8 8
12 12 12 11 10 9 9 9 9 9 9 9 9 9 8 8 8 7 8 8 9 9 10 10 10 10 10 9 9 9 9 9 9 9 9 9 9 9 10 10 10 10 10 10 10 10 10 10 11 10 10 10 10 10 10 10 10 10 9 9 9 8 8 8 8 8 8 8 9
Wind_Direction
241 244 247 250 253 255 257 258 260 261 262 263 264 265 266 267 267 268 268 268 267 266 266 265 265 264 264 263 262 262 262 261 262 262 262 263 263 264 264 265 265 266 266 266 266 266 266 267 267 267 267 267 267 268 268 268 268 267 266 267 269 271 271 269 266 263 261 259 260
246 248 250 252 254 256 258 259 261 262 262 263 264 264 265 265 265 265 265 265 264 264 264 263 263 262 261 260 260 260 259 259 260 260 261 261 261 262 263 263 264 264 265 265 265 265 265 265 265 265 265 266 266 267 267 268 268 267 267 268 270 270 268 266 263 261 259 258 259
248 250 251 253 254 256 257 259 260 261 262 263 264 264 264 264 264 264 263 263 263 263 262 262 261 261 260 260 259 259 259 259 259 259 259 260 260 261 261 262 262 263 263 263 263 264 264 264 264 264 264 264 265 266 266 267 267 267 268 268 268 267 265 262 261 259 257 256 257
248 249 251 252 254 255 257 258 260 261 262 262 263 263 263 263 263 263 263 263 263 262 262 262 261 261 261 261 261 260 260 260 260 259 259 259 259 259 260 260 261 261 261 262 262 262 263 263 263 263 263 264 264 265 266 266 267 267 268 267 266 264 262 260 259 257 256 255 256
248 249 251 252 254 255 257 258 259 260 260 261 261 261 261 262 262 262 262 262 262 262 262 262 262 262 263 263 263 262 262 262 261 261 260 260 259 259 259 259 259 260 260 260 261 261 261 261 261 261 262 262 263 264 264 265 265 266 265 264 262 261 260 259 258 256 254 254 255
249 251 252 253 255 256 257 258 258 259 259 260 260 260 260 260 260 260 260 260 261 262 262 263 263 264 264 265 265 265 264 264 263 262 262 261 261 260 260 260 259 259 259 259 259 259 260 260 260 260 260 261 261 262 262 262 263 262 261 260 259 259 259 259 256 254 252 253 255
251 252 254 255 256 257 257 258 258 259 259 259 259 259 259 260 260 260 260 261 261 262 262 263 264 265 265 266 266 266 266 265 265 264 264 263 263 262 261 261 261 260 260 259 259 259 258 258 259 259 259 259 259 259 259 259 259 258 258 257 258 258 258 258 255 253 251 251 253
252 254 255 256 257 257 258 258 259 259 260 260 259 259 260 260 260 260 261 261 262 262 263 264 265 265 266 267 267 267 267 267 267 266 266 266 265 264 264 263 262 262 261 260 259 258 258 257 257 258 258 258 257 256 255 255 255 255 255 256 257 257 257 256 254 252 249 249 252
252 254 255 256 257 258 259 259 260 260 260 260 260 261 261 261 261 261 262 262 262 263 264 264 265 265 266 266 267 267 268 268 268 268 267 267 267 266 266 265 264 263 262 261 259 258 257 257 257 257 257 256 255 254 253 252 252 253 254 256 256 255 253 251 251 251 251 251 253
253 254 256 257 258 259 260 260 260 261 261 261 261 262 262 262 262 262 263 263 264 264 264 264 265 265 265 266 267 267 267 268 268 268 268 268 268 267 267 266 266 265 263 262 260 258 257 256 256 256 255 254 252 251 250 250 250 251 253 254 253 250 246 244 247 251 254 255 254
256 257 258 259 260 260 261 261 261 261 261 261 262 262 262 262 263 263 263 264 264 264 264 265 265 265 265 266 266 267 267 267 268 268 268 268 267 267 267 266 266 265 264 262 260 259 257 256 255 254 252 251 250 248 248 247 248 249 250 250 247 243 239 239 243 249 253 254 253
262 262 262 262 262 262 261 261 261 261 261 261 261 262 262 262 262 263 263 264 264 264 265 265 265 265 265 266 266 266 266 266 266 266 266 266 266 265 265 264 264 263 262 261 259 258 256 254 253 251 249 248 247 246 245 245 245 245 245 245 242 239 238 240 243 246 249 250 250
266 265 265 264 264 263 262 262 261 261 261 261 260 261 261 261 262 262 262 263 263 264 264 264 264 264 264 264 264 264 264 264 264 264 264 263 263 263 262 262 261 261 260 259 258 256 254 253 251 248 246 245 244 243 243 242 242 241 241 241 241 241 243 244 244 244 245 246 247
267 266 265 265 264 264 263 262 262 261 260 260 260 260 260 260 260 260 261 261 262 262 262 262 262 262 261 261 261 261 261 261 261 261 260 260 260 260 259 259 259 258 258 257 256 255 253 252 249 247 244 242 241 240 239 239 238 238 238 239 242 245 247 247 246 244 245 247 249
267 266 265 265 265 264 264 263 262 261 260 259 259 258 258 258 258 259 259 259 259 260 260 259 259 258 258 258 258 258 258 258 258 258 258 258 258 258 257 257 257 257 256 256 255 254 253 251 249 245 242 239 237 235 235 235 235 236 237 240 243 246 247 248 248 248 249 251 251
268 267 267 266 265 264 263 262 261 260 259 258 257 257 257 257 257 257 257 257 257 257 256 255 255 255 255 255 255 255 255 256 256 256 256 257 257 257 257 257 256 256 256 255 255 254 252 250 247 243 238 235 232 231 231 232 234 237 240 242 244 246 247 248 249 251 252 252 248
271 269 268 266 265 263 262 260 259 258 256 256 256 255 255 255 255 254 254 253 253 253 252 252 251 252 252 252 253 253 253 254 255 256 256 257 257 257 257 257 256 255 254 254 253 252 250 248 244 240 236 233 231 229 229 230 235 240 244 246 247 247 247 248 250 251 250 246 238
273 270 268 265 263 260 258 257 256 255 254 253 253 253 252 252 252 251 251 250 249 248 248 248 248 249 249 249 250 251 251 252 253 255 255 256 256 255 254 254 253 252 252 251 251 249 247 244 241 237 234 232 230 229 229 231 237 243 247 247 246 244 244 245 245 243 239 234 229
272 268 266 263 260 257 254 252 252 252 251 250 249 249 249 248 248 247 247 247 246 245 245 245 245 245 246 246 246 247 248 249 250 251 251 251 250 248 247 246 246 246 246 247 246 244 241 238 235 232 230 229 229 229 231 234 239 243 244 242 238 235 234 235 234 232 230 229 232
267 264 262 259 255 251 247 244 244 245 246 246 245 245 245 245 245 244 243 243 243 242 242 242 242 242 242 241 241 241 243 243 243 241 241 241 239 235 233 231 232 235 238 238 237 234 231 229 226 224 224 224 226 229 232 235 236 235 232 227 223 221 223 227 229 232 236 241 246
262 258 254 250 245 239 233 230 230 233 237 240 242 244 245 245 244 242 241 241 241 240 239 239 239 238 237 236 234 235 237 238 234 230 227 227 226 222 219 217 217 219 222 223 222 221 219 218 219 219 221 222 224 227 228 228 225 220 214 209 209 215 223 231 238 245 249 252 253
255 250 246 242 234 225 219 220 223 226 231 235 240 245 248 248 245 242 240 239 239 238 237 237 236 236 235 233 232 233 234 234 229 223 220 218 218 215 212 210 205 205 208 213 215 215 215 215 216 217 219 219 220 219 217 214 210 205 203 207 218 230 239 244 247 250 251 252 253
245 242 241 240 231 222 218 220 222 226 229 233 235 238 243 246 245 242 239 238 239 239 239 238 237 236 235 234 235 236 236 234 229 223 219 218 218 218 214 209 202 201 207 213 215 218 220 219 217 215 214 214 212 210 208 207 206 208 215 225 235 241 244 245 246 247 248 249 250
228 223 226 233 233 229 226 227 229 231 232 232 229 228 233 240 244 243 240 238 239 240 240 240 239 238 237 237 238 239 238 236 230 224 221 221 223 224 223 219 214 213 215 218 219 221 224 225 221 217 214 214 214 214 214 217 221 226 230 234 236 238 239 240 241 243 244 245 246
208 207 213 221 229 235 238 240 242 243 241 235 228 226 229 235 240 241 241 240 239 239 239 239 238 238 238 238 238 238 238 238 235 230 226 225 226 227 227 225 222 221 221 222 222 222 224 227 227 227 227 229 231 234 236 237 238 236 234 232 231 232 232 233 235 237 238 239 240
203 208 213 218 229 240 249 255 259 257 249 236 226 224 229 234 237 239 241 242 242 241 240 239 239 239 238 236 233 231 232 235 236 234 233 231 232 232 231 228 226 225 225 225 224 224 225 228 231 235 238 243 247 250 252 250 246 240 233 227 225 225 226 226 227 228 231 233 234
208 212 217 225 236 248 259 268 274 270 253 230 221 224 232 239 243 246 248 250 250 249 246 244 243 242 240 237 232 228 227 229 233 235 237 238 239 239 238 236 235 234 234 232 230 229 229 232 235 238 242 246 249 252 252 249 243 236 229 223 220 220 220 220 221 223 226 231 235
213 217 224 233 243 254 264 273 276 268 247 224 219 225 237 246 253 258 261 264 264 262 258 253 249 246 243 242 240 238 235 234 236 239 240 242 242 242 242 242 243 245 246 244 240 237 237 238 240 241 242 243 244 244 243 239 234 229 224 221 219 219 220 222 224 227 231 235 240
218 224 231 239 245 253 261 267 267 256 237 220 219 227 240 251 258 264 268 272 273 273 270 265 257 251 248 247 246 246 245 245 247 248 248 246 243 241 241 244 247 250 252 251 246 243 241 242 243 243 242 240 238 236 233 229 225 222 221 221 222 223 225 227 230 234 237 242 246
224 232 240 246 250 254 257 257 251 238 225 219 223 232 243 252 259 263 267 269 271 272 273 271 266 259 252 249 249 249 250 251 252 254 253 248 243 240 240 244 248 251 252 250 247 244 242 242 241 239 236 234 231 228 225 222 221 220 220 222 224 225 227 230 233 237 240 244 247
235 244 251 255 255 254 251 245 235 225 221 225 232 241 249 256 259 262 263 264 265 267 269 269 267 260 253 249 248 247 248 249 250 250 248 244 240 238 240 244 246 248 247 245 243 240 239 237 234 231 228 226 224 222 221 220 220 220 220 222 224 225 227 230 232 235 238 241 242
245 252 255 254 250 245 242 237 230 224 224 232 242 250 256 259 261 261 260 259 259 260 261 262 258 251 245 242 241 240 240 240 239 238 236 234 234 236 238 241 242 241 239 237 234 232 230 228 224 221 220 220 219 219 219 219 219 219 220 221 222 224 226 227 228 230 231 233 233
246 250 249 244 238 235 234 234 232 230 232 240 249 256 260 263 263 260 256 252 250 249 249 246 241 236 232 231 230 229 228 226 225 225 227 229 230 231 233 234 234 232 230 227 225 223 221 218 216 215 215 216 217 217 217 217 218 218 219 219 220 222 223 224 224 224 224 224 226
239 239 236 231 228 228 231 235 237 238 240 246 253 259 263 264 262 257 250 244 242 240 238 233 228 224 222 220 219 219 217 215 215 218 222 225 226 228 228 228 227 225 222 220 218 216 214 213 211 212 213 215 216 216 216 216 216 216 216 216 218 219 219 220 219 219 219 219 219
231 230 228 226 226 227 231 235 239 241 243 247 252 258 262 263 259 253 246 240 236 233 231 227 222 220 217 215 212 211 211 212 214 217 220 222 223 224 225 224 223 220 217 215 214 212 210 209 209 210 212 213 214 215 214 213 213 213 212 212 213 214 215 215 215 214 215 215 215
229 228 226 225 227 229 232 236 239 241 242 244 248 254 259 261 257 251 244 238 234 231 227 225 222 219 217 215 214 213 214 216 218 219 220 220 220 220 221 221 218 214 212 211 210 208 207 207 208 208 210 211 212 213 212 210 209 208 207 207 207 207 209 209 209 210 211 213 215
230 229 228 229 231 233 234 236 237 239 240 241 244 249 255 259 257 251 243 236 232 231 230 227 226 225 223 221 221 220 220 221 220 220 218 218 217 217 217 216 210 206 205 205 205 204 204 204 205 206 207 208 209 209 208 207 206 204 202 201 200 202 204 206 207 209 211 215 220
232 232 232 233 235 236 236 236 235 236 238 240 244 249 253 257 256 251 242 235 232 232 232 231 230 229 226 225 224 224 224 223 221 219 218 219 219 217 214 209 202 199 199 200 200 201 202 202 203 203 204 203 203 203 202 201 200 199 197 197 197 200 203 206 209 212 217 222 228
233 233 233 235 237 238 238 236 234 234 237 242 247 252 255 257 255 249 242 235 231 231 231 231 231 229 227 226 226 225 226 225 223 222 223 224 222 217 209 202 197 195 196 197 198 200 201 201 202 201 200 198 197 196 195 194 194 194 195 195 197 200 205 209 213 218 225 231 237
232 231 231 234 238 241 241 240 237 236 239 245 252 256 259 258 253 247 242 237 233 232 231 231 230 228 226 225 224 225 228 231 230 228 226 224 220 212 203 197 195 195 196 197 198 199 200 201 200 199 197 194 192 191 190 190 191 193 196 198 201 205 210 216 221 226 232 238 243
231 228 228 231 235 241 244 244 242 241 242 246 251 257 260 259 256 252 248 243 239 237 234 233 231 228 226 223 222 223 226 231 232 228 222 218 212 204 198 194 194 195 197 197 197 197 197 197 196 195 193 191 190 189 189 190 193 197 201 204 208 212 217 223 229 234 238 243 247
Height
1523 1523 1524 1524 1524 1525 1525 1525 1525 1526 1526 1526 1527 1527 1527 1528 1528 1528 1528 1528 1528 1528 1529 1529 1529 1529 1529 1529 1529 1529 1529 1529 1529 1529 1529 1529 1529 1529 1529 1529 1529 1529 1529 1529 1529 1529 1529 1529 1529 1529 1528 1528 1528 1528 1528 1529 1529 1529 1529 1529 1528 1529 1529 1529 1529 1529 1529 1529 1529
1522 1522 1523 1523 1523 1523 1524 1524 1524 1524 1525 1525 1525 1525 1525 1526 1526 1526 1526 1526 1526 1526 1526 1526 1527 1527 1527 1527 1527 1527 1527 1527 1527 1527 1527 1527 1527 1527 1527 1527 1527 1527 1527 1527 1527 1527 1527 1527 1527 1526 1526 1526 1526 1526 1526 1526 1527 1527 1526 1526 1526 1526 1526 1526 1526 1527 1527 1527 1527
1521 1521 1521 1522 1522 1522 1522 1523 1523 1523 1523 1523 1523 1524 1524 1524 1524 1524 1524 1524 1524 1524 1525 1525 1525 1525 1525 1525 1525 1525 1525 1525 1525 1525 1525 1525 1525 1525 1525 1525 1525 1525 1525 1525 1525 1525 1524 1524 1524 1524 1524 1524 1524 1524 1524 1524 1524 1524 1524 1524 1524 1524 1524 1524 1525 1525 1525 1525 1526
1520 1520 1520 1520 1521 1521 1521 1521 1521 1521 1521 1521 1522 1522 1522 1522 1522 1522 1522 1522 1522 1522 1522 1523 1523 1523 1523 1523 1523 1523 1523 1523 1523 1523 1523 1523 1523 1523 1523 1523 1523 1523 1522 1522 1522 1522 1522 1522 1522 1521 1521 1521 1521 1521 1521 1521 1522 1522 1522 1522 1522 1522 1522 1522 1523 1523 1523 1524 1524
1518 1518 1519 1519 1519 1519 1520 1520 1520 1520 1520 1520 1520 1520 1520 1520 1520 1520 1520 1520 1520 1520 1520 1521 1521 1521 1521 1521 1521 1521 1521 1521 1521 1521 1521 1521 1521 1521 1521 1521 1520 1520 1520 1520 1520 1520 1520 1520 1520 1519 1519 1519 1519 1519 1519 1520 1520 1520 1520 1520 1520 1520 1520 1520 1521 1521 1522 1522 1522
1516 1517 1517 1517 1517 1518 1518 1518 1518 1518 1518 1518 1518 1518 1518 1519 1519 1519 1519 1519 1519 1519 1519 1519 1519 1519 1519 1519 1519 1519 1519 1519 1519 1519 1519 1519 1519 1519 1519 1519 1519 1518 1518 1518 1518 1518 1518 1518 1517 1517 1517 1517 1517 1517 1517 1518 1518 1518 1518 1518 1518 1518 1518 1519 1519 1520 1520 1520 1521
1515 1515 1515 1515 1516 1516 1516 1516 1516 1516 1516 1516 1516 1516 1517 1517 1517 1517 1517 1517 1517 1517 1517 1517 1517 1517 1517 1517 1517 1517 1517 1516 1516 1516 1516 1516 1516 1516 1516 1516 1516 1516 1516 1516 1516 1516 1516 1515 1515 1515 1515 1515 1515 1515 1515 1516 1516 1516 1516 1516 1516 1516 1517 1517 1517 1518 1518 1519 1519
1514 1514 1514 1514 1514 1514 1514 1515 1515 1515 1515 1515 1515 1515 1515 1515 1515 1515 1515 1515 1515 1515 1515 1515 1515 1515 1515 1515 1515 1514 1514 1514 1514 1514 1514 1514 1514 1514 1514 1514 1514 1514 1514 1514 1514 1514 1514 1513 1513 1513 1513 1513 1513 1513 1514 1514 1514 1514 1514 1514 1515 1515 1515 1515 1516 1516 1517 1517 1518
1512 1512 1512 1512 1512 1513 1513 1513 1513 1513 1513 1513 1513 1513 1513 1513 1513 1513 1513 1513 1513 1513 1513 1513 1513 1513 1513 1512 1512 1512 1512 1512 1512 1512 1512 1512 1512 1512 1512 1512 1512 1511 1511 1511 1511 1511 1511 1511 1511 1511 1511 1511 1511 1512 1512 1512 1512 1512 1512 1513 1513 1513 1514 1514 1515 1515 1515 1515 1516
1511 1511 1511 1511 1511 1511 1511 1511 1511 1511 1511 1511 1511 1511 1511 1511 1511 1511 1511 1511 1511 1511 1511 1511 1511 1511 1510 1510 1510 1510 1510 1510 1510 1510 1510 1510 1510 1510 1510 1509 1509 1509 1509 1509 1509 1509 1509 1509 1509 1509 1509 1510 1510 1510 1510 1510 1511 1511 1511 1511 1511 1512 1512 1513 1513 1514 1514 1514 1514
1509 1509 1509 1509 1509 1509 1509 1509 1509 1509 1509 1509 1509 1509 1509 1509 1509 1509 1509 1509 1509 1509 1509 1509 1509 1509 1508 1508 1508 1508 1508 1508 1508 1508 1508 1508 1507 1507 1507 1507 1507 1507 1507 1507 1507 1507 1507 1507 1507 1507 1507 1508 1508 1508 1508 1509 1509 1509 1510 1510 1510 1510 1511 1511 1512 1512 1512 1513 1513
1508 1508 1507 1507 1507 1507 1507 1507 1507 1507 1507 1507 1507 1507 1507 1507 1507 1507 1507 1507 1507 1507 1507 1507 1507 1507 1506 1506 1506 1506 1506 1506 1506 1506 1506 1505 1505 1505 1505 1505 1505 1505 1505 1505 1505 1505 1505 1505 1505 1505 1505 1506 1506 1506 1507 1507 1507 1508 1508 1508 1509 1509 1509 1510 1510 1511 1511 1511 1511
1506 1506 1506 1506 1505 1505 1505 1505 1505 1505 1505 1505 1505 1505 1505 1505 1505 1505 1505 1505 1505 1505 1505 1505 1505 1505 1505 1504 1504 1504 1504 1504 1504 1504 1504 1504 1504 1503 1503 1503 1503 1503 1503 1503 1503 1503 1503 1503 1503 1503 1504 1504 1504 1505 1505 1505 1506 1506 1507 1507 1507 1508 1508 1509 1509 1509 1510 1510 1510
1504 1504 1504 1504 1504 1504 1504 1503 1503 1503 1503 1503 1503 1503 1503 1503 1503 1503 1503 1503 1503 1503 1503 1503 1503 1503 1503 1503 1503 1502 1502 1502 1502 1502 1502 1502 1502 1501 1501 1501 1501 1501 1501 1501 1501 1501 1501 1501 1501 1502 1502 1502 1503 1503 1504 1504 1505 1505 1505 1505 1506 1506 1507 1508 1508 1507 1508 1508 1509
1502 1502 1502 1502 1501 1501 1501 1501 1501 1501 1501 1501 1501 1501 1501 1501 1501 1501 1501 1501 1501 1501 1501 1501 1501 1501 1501 1501 1501 1501 1501 1501 1501 1500 1500 1500 1500 1500 1500 1500 1500 1499 1499 1499 1499 1499 1500 1500 1500 1500 1500 1501 1501 1502 1502 1503 1503 1504 1504 1505 1505 1505 1506 1506 1506 1506 1506 1507 1507
1500 1500 1500 1500 1499 1499 1499 1499 1499 1499 1499 1499 1499 1499 1499 1499 1499 1499 1499 1500 1500 1500 1500 1500 1500 1500 1500 1500 1500 1500 1499 1499 1499 1499 1499 1498 1498 1498 1498 1498 1498 1498 1498 1498 1498 1498 1498 1498 1498 1498 1499 1499 1500 1500 1501 1502 1502 1503 1503 1503 1504 1505 1505 1505 1505 1505 1505 1505 1506
1498 1498 1498 1497 1497 1497 1497 1497 1497 1497 1497 1497 1497 1497 1497 1497 1497 1497 1498 1498 1498 1498 1498 1498 1498 1498 1498 1498 1498 1498 1498 1497 1497 1497 1497 1497 1497 1496 1496 1496 1496 1496 1496 1496 1496 1496 1496 1496 1497 1497 1497 1498 1499 1499 1500 1500 1501 1501 1502 1502 1503 1503 1503 1503 1504 1504 1504 1505 1505
1496 1495 1495 1495 1495 1495 1495 1495 1495 1495 1495 1495 1495 1495 1495 1495 1496 1496 1496 1496 1496 1496 1496 1496 1496 1497 1497 1496 1496 1496 1496 1496 1496 1495 1495 1495 1495 1495 1495 1495 1495 1495 1495 1495 1495 1495 1495 1495 1495 1496 1496 1497 1497 1498 1499 1499 1500 1500 1501 1501 1502 1502 1502 1502 1503 1503 1503 1504 1504
1494 1493 1493 1493 1493 1493 1493 1493 1493 1493 1493 1494 1494 1494 1494 1494 1494 1495 1495 1495 1495 1495 1495 1495 1495 1495 1495 1495 1495 1495 1495 1495 1495 1494 1494 1494 1494 1494 1494 1494 1494 1493 1493 1493 1494 1494 1494 1494 1494 1495 1495 1496 1496 1497 1497 1498 1499 1499 1500 1500 1500 1500 1501 1501 1502 1502 1502 1503 1503
1492 1491 1491 1492 1492 1492 1492 1492 1492 1492 1492 1492 1492 1493 1493 1493 1493 1493 1493 1494 1494 1494 1494 1494 1494 1494 1494 1494 1494 1494 1494 1494 1493 1493 1493 1493 1493 1493 1492 1493 1493 1493 1493 1493 1493 1493 1493 1493 1494 1494 1495 1495 1495 1496 1496 1497 1497 1498 1498 1499 1499 1500 1500 1501 1501 1501 1501 1502 1502
1490 1490 1490 1490 1490 1490 1491 1491 1491 1491 1491 1491 1491 1491 1491 1492 1492 1492 1492 1492 1492 1493 1493 1493 1493 1493 1493 1493 1493 1493 1493 1493 1492 1492 1492 1492 1492 1492 1492 1492 1492 1492 1492 1492 1492 1492 1492 1493 1493 1493 1494 1494 1495 1495 1495 1496 1496 1497 1497 1498 1498 1499 1499 1500 1500 1500 1500 1501 1501
1489 1489 1489 1489 1489 1490 1490 1490 1490 1490 1490 1490 1490 1490 1491 1491 1491 1491 1491 1491 1491 1491 1491 1492 1492 1492 1492 1492 1492 1492 1492 1492 1491 1491 1491 1491 1491 1491 1491 1491 1491 1491 1491 1492 1492 1492 1492 1492 1493 1493 1493 1493 1494 1494 1495 1495 1496 1496 1496 1497 1497 1498 1498 1499 1499 1499 1500 1500 1500
1487 1488 1488 1488 1488 1489 1489 1489 1489 1489 1489 1489 1490 1490 1490 1490 1490 1490 1490 1490 1490 1490 1490 1490 1491 1491 1491 1491 1491 1491 1491 1491 1490 1490 1490 1490 1490 1490 1490 1490 1491 1491 1491 1491 1491 1491 1492 1492 1492 1492 1493 1493 1493 1494 1494 1495 1495 1495 1495 1496 1496 1497 1497 1498 1498 1498 1499 1499 1499
1486 1487 1487 1487 1487 1488 1488 1488 1488 1488 1488 1489 1489 1489 1489 1489 1489 1489 1489 1490 1490 1490 1490 1490 1490 1490 1490 1490 1490 1490 1490 1490 1490 1490 1490 1490 1490 1490 1490 1490 1490 1490 1491 1491 1491 1491 1491 1492 1492 1492 1492 1493 1493 1493 1494 1494 1494 1495 1495 1495 1496 1496 1496 1497 1497 1497 1498 1498 1498
1486 1486 1487 1487 1487 1487 1487 1487 1487 1487 1487 1487 1488 1488 1488 1488 1488 1488 1488 1489 1489 1489 1489 1489 1489 1489 1489 1489 1489 1489 1489 1489 1489 1489 1489 1489 1489 1490 1490 1490 1490 1490 1490 1490 1491 1491 1491 1491 1491 1492 1492 1492 1492 1493 1493 1493 1494 1494 1494 1495 1495 1495 1495 1495 1496 1496 1497 1497 1497
1485 1485 1486 1486 1486 1486 1486 1486 1486 1486 1486 1486 1487 1487 1487 1487 1487 1487 1487 1487 1488 1488 1488 1488 1488 1488 1488 1488 1488 1488 1488 1488 1488 1488 1488 1488 1489 1489 1489 1489 1490 1490 1490 1490 1490 1490 1491 1491 1491 1491 1491 1491 1492 1492 1492 1492 1493 1493 1493 1493 1494 1494 1494 1495 1495 1495 1496 1496 1496
1485 1485 1485 1485 1485 1485 1485 1485 1485 1485 1485 1485 1486 1486 1486 1486 1486 1486 1486 1486 1486 1487 1487 1487 1487 1487 1487 1487 1487 1487 1487 1487 1487 1487 1488 1488 1488 1488 1488 1489 1489 1489 1490 1490 1490 1490 1490 1490 1490 1490 1490 1491 1491 1491 1491 1492 1492 1492 1492 1492 1493 1493 1494 1494 1494 1495 1495 1495 1496
1484 1484 1484 1485 1485 1485 1485 1485 1485 1485 1485 1485 1485 1485 1486 1485 1485 1485 1485 1485 1485 1485 1486 1486 1486 1486 1486 1486 1486 1486 1486 1486 1487 1487 1487 1487 1487 1487 1488 1488 1488 1488 1489 1489 1489 1489 1489 1490 1490 1490 1490 1490 1490 1490 1491 1491 1491 1491 1491 1492 1492 1492 1493 1493 1494 1494 1494 1495 1495
1483 1484 1484 1484 1484 1484 1484 1484 1484 1484 1484 1485 1485 1485 1485 1485 1485 1485 1485 1485 1485 1485 1485 1485 1485 1485 1485 1485 1485 1485 1485 1485 1485 1486 1486 1486 1486 1486 1486 1487 1487 1487 1487 1488 1488 1488 1488 1488 1489 1489 1489 1489 1489 1490 1490 1490 1490 1490 1491 1491 1491 1492 1492 1492 1493 1493 1494 1494 1494
1483 1483 1483 1483 1484 1484 1484 1484 1484 1484 1484 1484 1484 1484 1484 1484 1484 1484 1484 1484 1484 1484 1483 1483 1483 1483 1483 1484 1484 1484 1484 1484 1484 1485 1485 1485 1485 1485 1485 1485 1486 1486 1486 1486 1487 1487 1487 1487 1488 1488 1488 1488 1489 1489 1489 1489 1490 1490 1490 1490 1491 1491 1491 1492 1492 1493 1493 1493 1493
1482 1482 1482 1483 1483 1483 1483 1483 1483 1483 1483 1483 1483 1484 1484 1484 1484 1483 1483 1483 1483 1483 1482 1482 1482 1482 1482 1482 1482 1483 1483 1483 1483 1483 1484 1484 1484 1484 1484 1484 1485 1485 1485 1485 1485 1486 1486 1486 1487 1487 1487 1488 1488 1488 1489 1489 1489 1489 1490 1490 1490 1491 1491 1491 1492 1492 1492 1492 1493
1481 1481 1482 1482 1482 1482 1482 1482 1482 1482 1483 1483 1483 1483 1483 1483 1483 1482 1482 1482 1482 1482 1481 1481 1481 1481 1481 1481 1481 1481 1482 1482 1482 1482 1483 1483 1483 1483 1483 1483 1484 1484 1484 1485 1485 1485 1485 1485 1486 1486 1487 1487 1487 1488 1488 1488 1489 1489 1489 1490 1490 1490 1490 1491 1491 1491 1492 1492 1492
1480 1481 1481 1481 1481 1481 1481 1482 1482 1482 1482 1482 1482 1482 1482 1482 1481 1481 1481 1481 1481 1481 1481 1480 1480 1480 1480 1480 1480 1480 1480 1481 1481 1482 1482 1482 1482 1482 1482 1482 1483 1483 1483 1484 1484 1484 1485 1485 1485 1486 1486 1486 1487 1487 1487 1488 1488 1488 1489 1489 1489 1490 1490 1490 1490 1491 1491 1491 1492
1480 1480 1480 1480 1480 1481 1481 1481 1481 1481 1481 1482 1482 1481 1481 1481 1481 1480 1480 1480 1480 1480 1480 1480 1480 1480 1480 1480 1480 1480 1480 1480 1481 1481 1481 1481 1481 1481 1481 1482 1482 1482 1483 1483 1483 1484 1484 1485 1485 1485 1486 1486 1486 1487 1487 1487 1488 1488 1488 1488 1489 1489 1489 1490 1490 1490 1490 1491 1491
1480 1480 1480 1480 1480 1480 1480 1480 1480 1481 1481 1481 1481 1481 1480 1480 1480 1480 1480 1480 1480 1480 1480 1479 1479 1479 1479 1479 1479 1480 1480 1480 1480 1480 1481 1481 1481 1481 1481 1481 1481 1482 1482 1482 1483 1483 1484 1484 1485 1485 1485 1485 1486 1486 1486 1487 1487 1487 1488 1488 1488 1488 1489 1489 1490 1490 1490 1490 1491
1479 1479 1479 1479 1480 1480 1480 1480 1480 1480 1480 1480 1480 1480 1480 1480 1480 1479 1479 1479 1479 1479 1479 1479 1479 1479 1479 1479 1479 1480 1480 1480 1480 1480 1480 1480 1480 1480 1480 1481 1481 1481 1482 1482 1482 1483 1483 1484 1484 1485 1485 1485 1485 1486 1486 1486 1486 1487 1487 1487 1488 1488 1488 1489 1489 1489 1490 1490 1490
1478 1478 1478 1479 1479 1479 1479 1479 1480 1480 1480 1480 1480 1480 1480 1479 1479 1479 1479 1479 1479 1479 1479 1479 1479 1479 1479 1479 1479 1479 1479 1480 1480 1480 1480 1480 1480 1480 1480 1480 1480 1481 1481 1482 1482 1483 1483 1483 1484 1484 1484 1485 1485 1485 1485 1486 1486 1486 1486 1487 1487 1488 1488 1488 1489 1489 1489 1489 1490
1477 1477 1478 1478 1478 1478 1479 1479 1479 1479 1479 1479 1479 1479 1479 1479 1479 1478 1478 1478 1478 1478 1478 1478 1478 1479 1479 1479 1479 1479 1479 1479 1479 1480 1480 1480 1480 1480 1480 1480 1480 1481 1481 1481 1482 1482 1483 1483 1483 1484 1484 1484 1485 1485 1485 1485 1485 1486 1486 1486 1487 1487 1487 1488 1488 1488 1489 1489 1489
1476 1477 1477 1477 1478 1478 1478 1478 1478 1478 1479 1479 1478 1478 1478 1478 1478 1478 1478 1478 1478 1478 1478 1478 1478 1478 1478 1478 1478 1478 1479 1479 1479 1479 1479 1479 1479 1479 1480 1480 1480 1480 1481 1481 1481 1482 1482 1482 1483 1483 1483 1484 1484 1484 1485 1485 1485 1485 1486 1486 1486 1487 1487 1487 1488 1488 1488 1488 1488
1476 1476 1476 1477 1477 1477 1478 1478 1478 1478 1478 1478 1478 1478 1478 1478 1478 1478 1477 1478 1478 1478 1477 1477 1477 1478 1478 1478 1478 1478 1478 1478 1478 1478 1479 1479 1479 1479 1479 1480 1480 1480 1480 1481 1481 1481 1482 1482 1482 1482 1483 1483 1483 1484 1484 1485 1485 1485 1485 1486 1486 1486 1486 1487 1487 1487 1487 1488 1488
1475 1475 1476 1476 1476 1477 1477 1477 1477 1478 1478 1478 1478 1477 1477 1477 1477 1477 1477 1477 1477 1477 1477 1477 1477 1477 1477 1477 1477 1477 1477 1477 1478 1478 1478 1478 1478 1479 1479 1479 1480 1480 1480 1480 1480 1481 1481 1481 1482 1482 1482 1483 1483 1483 1484 1484 1485 1485 1485 1485 1485 1486 1486 1486 1486 1487 1487 1487 1487